Home > Weather > Alajuela > Past weeks

Flag for Costa Rica Past Weather in Alajuela, Costa Rica — Yesterday and Last 2 Weeks

Now
70 °F

Fog.


Feels Like: 70 °F
Forecast: 69 / 79 °F
Wind: 5 mph from Northwest

Location: Juan Santamaria

Current Time: May 27, 2016 at 8:18:43 PM

Latest Report: May 27, 2016 at 8:00 PM


Visibility: N/A

Pressure: 30.03 "Hg (26.88 "Hg at 955m altitude)

Humidity: 94%

Dew Point: 68 °F

Location of AlajuelaLocation

Past Weather in Alajuela — Graph

°F

Alajuela Temperature Yesterday

Maximum temperature yesterday: 84 °F (at 11:00 AM)
Minimum temperature yesterday: 66 °F (at 5:00 AM)
Average temperature yesterday: 73 °F

High & Low Weather Summary for the Past Weeks

 TemperatureHumidityPressure
High88 °F (May 17, 1:00 PM)94% (May 15, 4:00 PM)30.14 "Hg (May 15, 4:00 PM)
Low64 °F (May 27, 5:00 AM)40% (May 22, 2:00 PM)29.93 "Hg (May 13, 4:00 PM)
Average75 °F72%30.01 "Hg
* Reported May 12 7:00 PM — May 27 7:00 PM, Alajuela, Weather by CustomWeather, © 2016

Note: Actual official high and low records may vary slightly from our data, if they occured in-between our weather recording intervals... More about our weather records

Advertising

Alajuela Weather History for the Previous 24 Hours

Scroll right to see more
 ConditionsComfort  
Time TempWeatherWind HumidityBarometerVisibility
7:00 PM
Fri, May 27
72 °FPassing clouds.5 mph88%30.01 "Hg4 mi
6:00 PM72 °FLight rain. Passing clouds.3 mph88%29.99 "Hg4 mi
5:00 PM72 °FPartly sunny.6 mph88%29.97 "HgN/A
4:00 PM73 °FScattered showers. Partly sunny.8 mph89%29.94 "HgN/A
3:00 PM75 °FScattered showers. Scattered clouds.9 mph74%29.95 "HgN/A
2:00 PM77 °FBroken clouds.16 mph69%29.95 "HgN/A
1:00 PM82 °FPartly sunny.18 mph58%29.96 "HgN/A
12:00 PM84 °FPartly sunny.20 mph48%29.96 "HgN/A
11:00 AM84 °FBroken clouds.13 mph51%29.97 "HgN/A
10:00 AM82 °FSunny.6 mph55%29.98 "Hg10 mi
9:00 AM81 °FSunny.3 mph58%29.99 "Hg10 mi
8:00 AM75 °FSunny.7 mph69%30.02 "Hg10 mi
7:00 AM72 °FSunny.5 mph78%30.01 "Hg10 mi
6:00 AM66 °FSunny.3 mph88%30.00 "Hg10 mi
5:00 AM64 °FClear.5 mph88%29.99 "Hg10 mi
4:00 AM66 °FClear.3 mph88%29.98 "Hg10 mi
3:00 AM68 °FClear.6 mph83%29.96 "Hg10 mi
2:00 AM68 °FClear.5 mph83%29.98 "Hg10 mi
1:00 AM68 °FClear.3 mph78%29.97 "Hg10 mi
12:00 AM66 °FClear.5 mph88%30.00 "Hg10 mi
11:00 PM
Thu, May 26
68 °FClear.3 mph83%30.03 "Hg10 mi
10:00 PM70 °FClear.3 mph83%30.04 "Hg10 mi
9:00 PM72 °FClear.8 mph78%30.03 "Hg10 mi
8:00 PM72 °FPassing clouds.9 mph78%30.02 "HgN/A
Weather by CustomWeather, © 2016

See weather overviewHow to use our weather pages